Edinburg, TX

3:35 PM CDT on April 29, 2017 (GMT -0500)
Edinburg

Weather History for KEBG - May, 2013

Change the Weather History Date:

Tuesday, May 7, 2013

  Actual Average (KMFE) Record (KMFE)
Temperature  
Mean Temperature 76 °F -  
Max Temperature 88 °F 89 °F 100 °F (1998)
Min Temperature 63 °F 69 °F 61 °F (1992)
Cooling Degree Days 10    
Growing Degree Days 26 (Base 50)    
Moisture  
Dew Point 63 °F    
Average Humidity 67    
Maximum Humidity 85    
Minimum Humidity 41    
Precipitation  
Precipitation 0.00 in - - ()
Sea Level Pressure  
Sea Level Pressure 30.00 in    
Wind  
Wind Speed 8 mph (SE)    
Max Wind Speed 20 mph    
Max Gust Speed 25 mph    
Visibility 7 miles    
Events      
Averages and records for this station are not official NWS values.
T = Trace of Precipitation, MM = Missing Value Source: NWS Daily Summary

Daily Weather History Graph

Daily Weather History Graph

Search for Another Location

Airport or City:

Trip Planner

Search our weather history database for the weather conditions in past years. The results will help you decide how hot, cold, wet, or windy it might be!

Date:

Astronomy

May. 07, 2013 Rise Set
Actual Time 6:50 AM CDT 8:08 PM CDT
Civil Twilight 6:25 AM CDT 8:32 PM CDT
Nautical Twilight 5:56 AM CDT 9:02 PM CDT
Astronomical Twilight 5:25 AM CDT 9:32 PM CDT
Moon 5:13 AM CDT (5/7) 6:18 PM CDT (5/7)
Length of Visible Light 14h 07m
Length of Day
13h 17m
Waning Crescent, 5% of the Moon is Illuminated
May 7
Waning Crescent
May 9
New
May 17
First Quarter
May 24
Full
May 31
Last Quarter

Hourly Weather History & Observations

Time (CDT) Temp. Heat Index Dew Point Humidity Pressure Visibility Wind Dir Wind Speed Gust Speed Precip Events Conditions
12:15 AM 68.4 °F - 60.8 °F 77% 30.04 in 7.0 mi ESE 5.8 mph - N/A   Clear
12:35 AM 67.6 °F - 60.4 °F 78% 30.04 in 7.0 mi SE 5.8 mph - N/A   Clear
12:55 AM 68.0 °F - 60.8 °F 78% 30.03 in 7.0 mi SE 5.8 mph - N/A   Clear
1:15 AM 66.7 °F - 60.3 °F 80% 30.03 in 7.0 mi ESE 5.8 mph - N/A   Clear
1:35 AM 66.2 °F - 60.4 °F 82% 30.02 in 7.0 mi SE 4.6 mph - N/A   Clear
1:55 AM 66.2 °F - 60.3 °F 81% 30.02 in 7.0 mi South 4.6 mph - N/A   Clear
2:15 AM 66.4 °F - 60.3 °F 81% 30.01 in 7.0 mi South 3.5 mph - N/A   Clear
2:35 AM 66.4 °F - 59.9 °F 80% 30.01 in 7.0 mi SSE 3.5 mph - N/A   Clear
2:55 AM 65.5 °F - 59.9 °F 82% 30.00 in 7.0 mi SSE 4.6 mph - N/A   Clear
3:15 AM 65.3 °F - 59.9 °F 83% 30.00 in 7.0 mi Calm Calm - N/A   Clear
3:35 AM 65.3 °F - 59.5 °F 82% 29.99 in 7.0 mi ESE 3.5 mph - N/A   Clear
3:55 AM 64.4 °F - 59.2 °F 83% 29.99 in 7.0 mi SSE 3.5 mph - N/A   Clear
4:15 AM 63.9 °F - 59.2 °F 85% 29.99 in 7.0 mi Calm Calm - N/A   Clear
4:35 AM 63.7 °F - 59.0 °F 85% 29.98 in 7.0 mi ESE 5.8 mph - N/A   Clear
4:55 AM 64.6 °F - 60.1 °F 85% 29.99 in 7.0 mi ESE 5.8 mph - N/A   Clear
5:15 AM 64.8 °F - 60.1 °F 85% 29.99 in 7.0 mi East 4.6 mph - N/A   Clear
5:35 AM 64.9 °F - 60.3 °F 85% 29.99 in 7.0 mi SE 4.6 mph - N/A   Clear
5:55 AM 65.3 °F - 60.8 °F 85% 29.99 in 7.0 mi ESE 3.5 mph - N/A   Clear
6:15 AM 65.5 °F - 60.8 °F 85% 29.99 in 7.0 mi East 3.5 mph - N/A   Clear
6:35 AM 65.5 °F - 60.8 °F 85% 30.01 in 7.0 mi East 3.5 mph - N/A   Clear
6:55 AM 65.5 °F - 60.8 °F 85% 30.01 in 7.0 mi SE 3.5 mph - N/A   Scattered Clouds
7:15 AM 65.7 °F - 61.2 °F 85% 30.01 in 5.0 mi Calm Calm - N/A   Haze
7:35 AM 67.1 °F - 61.9 °F 83% 30.02 in 5.0 mi Calm Calm - N/A   Haze
7:55 AM 68.7 °F - 62.8 °F 81% 30.02 in 7.0 mi East 3.5 mph - N/A   Clear
8:15 AM 70.7 °F - 63.1 °F 77% 30.02 in 5.0 mi East 6.9 mph - N/A   Haze
8:35 AM 72.3 °F - 63.7 °F 74% 30.03 in 7.0 mi ESE 8.1 mph - N/A   Clear
8:55 AM 73.4 °F - 63.7 °F 71% 30.03 in 7.0 mi ESE 10.4 mph - N/A   Mostly Cloudy
9:15 AM 74.1 °F - 63.5 °F 69% 30.04 in 7.0 mi ESE 11.5 mph - N/A   Overcast
9:35 AM 75.0 °F - 63.5 °F 67% 30.04 in 7.0 mi ESE 11.5 mph - N/A   Overcast
9:55 AM 75.0 °F - 63.5 °F 67% 30.05 in 7.0 mi SE 9.2 mph - N/A   Overcast
10:15 AM 76.5 °F - 64.0 °F 65% 30.05 in 5.0 mi SE 10.4 mph - N/A   Haze
10:35 AM 77.4 °F - 63.9 °F 63% 30.06 in 5.0 mi SE 9.2 mph - N/A   Haze
11:15 AM 78.8 °F - 64.4 °F 61% 30.06 in 7.0 mi SE 9.2 mph - N/A   Overcast
11:35 AM 80.8 °F 82.4 °F 64.4 °F 57% 30.05 in 7.0 mi ESE 10.4 mph - N/A   Mostly Cloudy
11:55 AM 80.6 °F 82.2 °F 64.2 °F 57% 30.05 in 7.0 mi SSE 5.8 mph - N/A   Mostly Cloudy
12:15 PM 81.7 °F 83.3 °F 64.4 °F 56% 30.05 in 7.0 mi SE 9.2 mph - N/A   Mostly Cloudy
12:55 PM 82.8 °F 84.2 °F 63.9 °F 53% 30.02 in 7.0 mi SE 8.1 mph - N/A   Mostly Cloudy
1:15 PM 83.5 °F 84.7 °F 63.7 °F 51% 30.02 in 5.0 mi SE 11.5 mph 16.1 mph N/A   Haze
1:35 PM 84.2 °F 85.2 °F 63.1 °F 49% 30.01 in 7.0 mi SSE 8.1 mph - N/A   Overcast
1:55 PM 84.7 °F 85.6 °F 63.0 °F 48% 30.00 in 7.0 mi SE 8.1 mph 17.3 mph N/A   Mostly Cloudy
2:15 PM 85.3 °F 85.9 °F 62.4 °F 46% 29.99 in 7.0 mi East 8.1 mph - N/A   Mostly Cloudy
2:35 PM 84.4 °F 85.6 °F 63.7 °F 50% 29.99 in 10.0 mi ENE 8.1 mph 11.5 mph N/A   Mostly Cloudy
2:55 PM 84.9 °F 85.6 °F 62.8 °F 47% 29.99 in 7.0 mi East 6.9 mph - N/A   Overcast
3:15 PM 84.7 °F 85.9 °F 63.9 °F 49% 29.98 in 7.0 mi SE 13.8 mph - N/A   Overcast
3:35 PM 86.5 °F 87.6 °F 63.3 °F 46% 29.97 in 7.0 mi ESE 10.4 mph 20.7 mph N/A   Scattered Clouds
3:55 PM 86.4 °F 87.3 °F 63.1 °F 46% 29.96 in 7.0 mi ESE 10.4 mph - N/A   Scattered Clouds
4:15 PM 86.0 °F 86.6 °F 62.4 °F 45% 29.95 in 7.0 mi SE 11.5 mph 16.1 mph N/A   Scattered Clouds
4:35 PM 87.1 °F 87.2 °F 61.7 °F 42% 29.95 in 7.0 mi ESE 12.7 mph - N/A   Scattered Clouds
4:55 PM 88.7 °F 89.1 °F 62.1 °F 41% 29.94 in 7.0 mi ESE 12.7 mph 18.4 mph N/A   Mostly Cloudy
5:15 PM 85.6 °F 86.6 °F 63.1 °F 47% 29.94 in 7.0 mi ESE 15.0 mph 19.6 mph N/A   Scattered Clouds
5:35 PM 86.0 °F 87.1 °F 63.5 °F 47% 29.94 in 7.0 mi ESE 17.3 mph 20.7 mph N/A   Scattered Clouds
5:55 PM 85.8 °F 86.8 °F 63.7 °F 47% 29.94 in 7.0 mi East 15.0 mph 20.7 mph N/A   Clear
6:15 PM 85.1 °F 86.4 °F 63.7 °F 49% 29.93 in 7.0 mi ESE 17.3 mph - N/A   Clear
6:35 PM 84.2 °F 85.4 °F 63.9 °F 50% 29.92 in 5.0 mi ESE 19.6 mph - N/A   Haze
6:55 PM 83.1 °F 84.6 °F 64.4 °F 53% 29.92 in 5.0 mi East 17.3 mph 23.0 mph N/A   Haze
7:15 PM 81.0 °F 82.6 °F 64.4 °F 57% 29.93 in 7.0 mi ESE 19.6 mph 24.2 mph N/A   Clear
7:35 PM 79.9 °F - 64.6 °F 59% 29.93 in 7.0 mi ESE 18.4 mph 24.2 mph N/A   Clear
7:55 PM 78.8 °F - 64.6 °F 62% 29.94 in 7.0 mi ESE 18.4 mph 25.3 mph N/A   Clear
8:15 PM 77.9 °F - 64.6 °F 63% 29.94 in 7.0 mi ESE 15.0 mph 20.7 mph N/A   Clear
8:35 PM 77.2 °F - 64.4 °F 65% 29.95 in 7.0 mi ESE 17.3 mph 21.9 mph N/A   Clear
8:55 PM 77.0 °F - 64.4 °F 65% 29.96 in 7.0 mi SE 18.4 mph 21.9 mph N/A   Scattered Clouds
9:15 PM 76.8 °F - 64.4 °F 65% 29.97 in 10.0 mi ESE 16.1 mph 20.7 mph N/A   Overcast
9:35 PM 76.5 °F - 64.4 °F 66% 29.97 in 10.0 mi SE 18.4 mph - N/A   Overcast
9:55 PM 75.9 °F - 64.4 °F 67% 29.99 in 7.0 mi SE 18.4 mph 24.2 mph N/A   Overcast
10:15 PM 75.4 °F - 64.4 °F 69% 30.00 in 7.0 mi SE 13.8 mph 17.3 mph N/A   Overcast
10:35 PM 74.8 °F - 64.0 °F 69% 30.00 in 7.0 mi SE 15.0 mph - N/A   Mostly Cloudy
10:55 PM 74.5 °F - 64.4 °F 71% 30.01 in 7.0 mi SE 12.7 mph 20.7 mph N/A   Overcast
11:15 PM 73.9 °F - 64.6 °F 72% 30.02 in 7.0 mi SE 16.1 mph - N/A   Overcast
11:35 PM 73.6 °F - 64.8 °F 74% 30.01 in 7.0 mi SE 12.7 mph 18.4 mph N/A   Overcast
11:55 PM 73.4 °F - 64.9 °F 75% 30.01 in 7.0 mi SE 11.5 mph - N/A   Overcast